Regional Weather Roundup
Issued by NWS

Home | Current Version | Previous Version | Text Only | Print | Product List | Glossary Off
Versions: 1 2 3 4 5 6 7 8 9 10 11 12 13 14 15 16 17 18 19 20 21 22 23 24 25 26 27 28 29 30 31 32 33 34 35 36 37 38 39 40 41 42 43 44 45 46 47 48 49 50

402
ASUS43 KMKX 210421
RWRWI

WISCONSIN REGIONAL WEATHER ROUNDUP
NATIONAL WEATHER SERVICE MILWAUKEE/SULLIVAN WI
1100 PM CDT WED SEP 20 2017

NOTE: "FAIR" INDICATES FEW OR NO CLOUDS BELOW 12,000 FEET WITH NO
SIGNIFICANT WEATHER AND/OR OBSTRUCTIONS TO VISIBILITY.

WIZ001-002-006>008-014>016-023>028-210500-
NORTHWEST WISCONSIN

CITY           SKY/WX    TMP DP  RH WIND       PRES   REMARKS
SUPERIOR ARPT  CLEAR     46  46  99 S5        29.95R
ASHLAND        CLEAR     48  47  96 CALM      29.95R
HAYWARD        PTCLDY    48  47  96 CALM      29.96R
SIREN          CLEAR     50  49  95 CALM      29.96R
CUMBERLAND     CLEAR     52  50  93 CALM      29.96R
RICE LAKE      FOG       52  51  98 CALM      29.98R VSB 1
CHETEK         CLEAR     53  53 100 N6        29.96R
LADYSMITH      CLEAR     57  56  94 CALM      29.98R
EAU CLAIRE     CLEAR     56  55  97 CALM      29.94R
MENOMONIE      CLEAR     58  57  96 CALM      29.96R
NEW RICHMOND   CLEAR     54  50  87 CALM      29.95R
OSCEOLA        CLEAR     52  52 100 CALM      29.98R
$$

WIZ003>005-009-010-017-018-210500-
NORTH CENTRAL WISCONSIN

CITY           SKY/WX    TMP DP  RH WIND       PRES   REMARKS
MANITOWISH WTR CLEAR     57  57 100 NW3       29.95R
ARBOR VITAE    CLOUDY    62  61  96 CALM      29.95R FOG
WOODRUFF       CLOUDY    62  61  96 CALM      29.95R FOG
RHINELANDER    FOG       61  61 100 CALM      29.96R VSB 1/4
EAGLE RIVER    FOG       59  59 100 CALM      29.96R VSB<1/4
LAND O LAKES   FOG       62  62 100 CALM      29.98R VSB<1/4
PHILLIPS       FOG       52  52 100 CALM      29.95R VSB 3/4
TOMAHAWK       FOG       58  58  97 CALM      29.96R VSB 1/4
MEDFORD        CLEAR     58  57  99 W5        29.94R FOG
MERRILL        FOG       61  61 100 CALM      29.95R VSB 3/4
$$

WIZ029-030-035-036-043>047-210500-
CENTRAL WISCONSIN

CITY           SKY/WX    TMP DP  RH WIND       PRES   REMARKS
WAUSAU         FOG       65  65 100 SE5       29.93R VSB 1
MOSINEE        CLOUDY    64  64 100 E3        29.95R
MARSHFIELD     CLEAR     61  58  90 NW3       29.92R
STEVENS POINT  CLOUDY    65  65 100 CALM      29.95R
WAUPACA        CLOUDY    69  69  98 SE3       29.94R
WAUTOMA        CLOUDY    70  70 100 E5        29.94R
WISC RAPIDS    FOG       65  65 100 CALM      29.94S VSB 3/4
CAMP DOUGLAS   PTCLDY    68  68 100 CALM      29.92R
$$

WIZ011>013-019>022-031-037>040-048>050-210500-
NORTHEAST WISCONSIN

CITY           SKY/WX    TMP DP  RH WIND       PRES   REMARKS
ANTIGO         FOG       64  64 100 CALM      29.95R VSB 1/4
SHAWANO        CLOUDY    70  67  89 SW7       29.91R
OCONTO         CLOUDY    69  68  98 CALM      29.89R
STURGEON BAY   LGT RAIN  70  69  97 NW10      29.90R
GREEN BAY      LGT RAIN  70  68  93 S9        29.89R
MANITOWOC      LGT RAIN  69  67  93 S13       29.93R
APPLETON       CLOUDY    68  68 100 SW13      29.91R
CLINTONVILLE   NOT AVBL
OSHKOSH        TSTM      69  67  93 SE21      29.92F FOG
$$

WIZ032>034-041-042-053>061-210500-
SOUTHWEST WISCONSIN

CITY           SKY/WX    TMP DP  RH WIND       PRES   REMARKS
LA CROSSE      NOT AVBL
SPARTA         FOG       60  60 100 CALM      29.93R VSB 1/4
VIROQUA        PTCLDY    67  67 100 SE5       29.95R
BOSCOBEL       CLOUDY    73  70  90 CALM      29.91R
PRAIRIE DU CHI CLOUDY    70  68  92 CALM      29.91R
PLATTEVILLE    CLOUDY    72  71  98 W3        29.92R
$$

WIZ056-057-062-063-064-067-068-210500-
SOUTH CENTRAL WISCONSIN

CITY           SKY/WX    TMP DP  RH WIND       PRES   REMARKS
REEDSBURG      CLOUDY    70  70 100 CALM      29.92R
BARABOO/DELLS  CLOUDY    70  68  93 W3        29.93R
LONE ROCK      CLOUDY    74  72  93 CALM      29.92R
MINERAL POINT  CLOUDY    73  73 100 SW3       29.93R
MADISON        CLOUDY    72  70  93 NW6       29.91R
MIDDLETON      CLOUDY    73  73 100 NW3       29.92R
WATERTOWN      CLOUDY    69  69 100 NE9       29.94R
MONROE         CLOUDY    75  64  69 W8        29.91R
JANESVILLE     CLOUDY    81  68  65 W6        29.90S HX  83
$$

WIZ051-052-058>065-066-070>072-210500-
SOUTHEAST WISCONSIN

CITY           SKY/WX    TMP DP  RH WIND       PRES   REMARKS
MILWAUKEE      CLOUDY    77  68  73 SE3       29.91R
WAUKESHA       LGT RAIN  75  64  69 N15       29.96R
MILWAUKEE/TIMM LGT RAIN  75  64  69 N15G29    29.95R
RACINE         CLOUDY    74  69  85 S3        29.93R
BURLINGTON     CLOUDY    71  68  91 CALM      29.91S
KENOSHA        CLOUDY    78  67  68 S7        29.92R HX  80
FOND DU LAC    TSTM      69  65  86 VRB7      30.00R FOG
SHEBOYGAN      TSTM      67  67 100 NW6       29.98F FOG
WEST BEND      LGT RAIN  68  68 100 E5        29.97R
JUNEAU         TSTM      69  67  96 NE6       29.96S
$$

LSZ147-162-210500-
LAKE SUPERIOR

STATION/POSITION TIME  TEMP    WIND        PRES    WAVE
                       AIR SEA DIR/SP/G            HT/PER
                 (UTC) (F)     (DEG/KT/KT) (MB)    (FT/S)
W MID LAKE BUOY  0350   58 54  310/ 10/ 10 1012.5R   2/ 5
DEVILS ISLAND    0400   61     320/  9/ 10 1013.4R
SAXON HARBOR     0400   57     210/  3/  6 1013.9
$$

LMZ867-665-643>646-210500-
LAKE MICHIGAN

STATION/POSITION TIME  TEMP    WIND        PRES    WAVE
                       AIR SEA DIR/SP/G            HT/PER
                 (UTC) (F)     (DEG/KT/KT) (MB)    (FT/S)
S GREEN BAY BUOY 0330   69 66  210/  8/  8 1011.6R
N MID LAKE BUOY  0350   68 65  350/  2/  4 1013.1R   3/ 6
NORTHPORT PIER   0400   73     300/  4/ 14 1012.5
KEWAUNEE LAKESHO 0400   69      90/  8/ 10 1011.8
SHEBOYGAN LAKESH 0400   69     290/  6/  7 1015.1R
PORT WASHINGTON  0401   73     300/ 13/ 27 1016.9
ATWATER BUOY     0309   69 64  180/  6/  8 1013.2R
MILWAUKEE LAKESH 0400   70                   N/A
S MID LAKE BUOY  0350   72 69  160/ 10/ 10 1013.6R   1/ 3
KENOSHA   LAKESH 0400   72     170/  7/  8 1012.5
$$

TC  - TEMPERATURE IN CELSIUS
VSB - VISIBILITY IN STATUTE MILES
WCI - WIND CHILL INDEX
HX  - HEAT INDEX





USA.gov is the U.S. government's official web portal to all federal, state and local government web resources and services.